Weather History for OTBD - October, 2012

Change the Weather History Date:

Thursday, October 4, 2012

  Actual Average Record
Temperature  
Mean Temperature 92 °F -  
Max Temperature 101 °F 94 °F 106 °F (2013)
Min Temperature 82 °F 73 °F 77 °F (2001)
Cooling Degree Days 26    
Growing Degree Days 42 (Base 50)    
Moisture  
Dew Point 73 °F    
Average Humidity 61    
Maximum Humidity 89    
Minimum Humidity 18    
Precipitation  
Precipitation 0.00 in 0.00 in - ()
Sea Level Pressure  
Sea Level Pressure 29.77 in    
Wind  
Wind Speed 4 mph ()    
Max Wind Speed 13 mph    
Max Gust Speed -    
Visibility 5.4 miles    
Events      
Averages and records for this station are not official NWS values.
T = Trace of Precipitation, MM = Missing Value Source: Averaged Metar Reports

Daily Weather History Graph

Daily Weather History Graph

Search for Another Location

Airport or City:

Trip Planner

Search our weather history database for the weather conditions in past years. The results will help you decide how hot, cold, wet, or windy it might be!

Date:

Astronomy

Oct. 04, 2012 Rise Set
Actual Time 5:27 AM AST 5:17 PM AST
Civil Twilight 5:04 AM AST 5:40 PM AST
Nautical Twilight 4:37 AM AST 6:06 PM AST
Astronomical Twilight 4:11 AM AST 6:33 PM AST
Moon 8:01 PM AST 8:57 AM AST
Length of Visible Light 12h 35m
Length of Day
11h 50m
Waning Gibbous, 84% of the Moon is Illuminated
Oct 4
Waning Gibbous
Oct 8
Last Quarter
Oct 15
New
Oct 22
First Quarter
Oct 29
Full

Hourly Weather History & Observations

Time (AST) Temp. Heat Index Dew Point Humidity Pressure Visibility Wind Dir Wind Speed Gust Speed Precip Events Conditions
12:00 AM 86.0 °F 99.3 °F 78.8 °F 79% 29.77 in 5.0 mi North 3.5 mph - N/A   Unknown
12:30 AM 86.0 °F 101.9 °F 80.6 °F 84% 29.77 in 5.0 mi North 3.5 mph - N/A   Unknown
1:00 AM 86.0 °F 99.3 °F 78.8 °F 79% 29.77 in 5.0 mi North 4.6 mph - N/A   Unknown
1:30 AM 86.0 °F 99.3 °F 78.8 °F 79% 29.77 in 5.0 mi North 3.5 mph - N/A   Unknown
2:00 AM 86.0 °F 99.3 °F 78.8 °F 79% 29.77 in 5.0 mi NW 3.5 mph - N/A   Unknown
2:30 AM 86.0 °F 99.3 °F 78.8 °F 79% 29.77 in 5.0 mi Variable 2.3 mph - N/A   Unknown
3:00 AM 84 °F - 78 °F 78% 29.77 in 5 mi 2.3 mph - -   Haze
3:00 AM 84.2 °F 96.1 °F 78.8 °F 84% 29.77 in 5.0 mi Variable 2.3 mph - N/A   Unknown
3:30 AM 84.2 °F 96.1 °F 78.8 °F 84% 29.77 in 5.0 mi Calm Calm - N/A   Unknown
4:00 AM 82.4 °F 92.4 °F 78.8 °F 89% 29.77 in 5.0 mi Variable 1.2 mph - N/A   Unknown
4:30 AM 82.4 °F 92.4 °F 78.8 °F 89% 29.77 in 5.0 mi Variable 2.3 mph - N/A   Unknown
5:00 AM 82.4 °F 92.4 °F 78.8 °F 89% 29.77 in 5.0 mi North 3.5 mph - N/A   Unknown
5:30 AM 82.4 °F 92.4 °F 78.8 °F 89% 29.77 in 3.7 mi Variable 2.3 mph - N/A   Unknown
6:00 AM 82.4 °F 92.4 °F 78.8 °F 89% 29.77 in 3.7 mi Variable 2.3 mph - N/A   Unknown
6:30 AM 84.2 °F 96.1 °F 78.8 °F 84% 29.80 in 5.0 mi Variable 2.3 mph - N/A   Unknown
7:00 AM 86.0 °F 96.9 °F 77.0 °F 74% 29.80 in 5.0 mi SW 3.5 mph - N/A   Unknown
7:30 AM 87.8 °F 99.7 °F 77.0 °F 70% 29.80 in 5.0 mi Variable 2.3 mph - N/A   Unknown
8:00 AM 89.6 °F 99.8 °F 75.2 °F 62% 29.80 in 5.0 mi SSW 3.5 mph - N/A   Unknown
8:30 AM 91.4 °F 100.1 °F 73.4 °F 55% 29.83 in 5.6 mi Variable 2.3 mph - N/A   Unknown
9:00 AM 94 °F - 71 °F 37% 29.83 in 6 mi SSW 3.5 mph - -   Smoke
9:00 AM 95.0 °F 103.2 °F 71.6 °F 47% 29.83 in 5.6 mi SSW 3.5 mph - N/A   Unknown
9:30 AM 95.0 °F 99.5 °F 68.0 °F 41% 29.80 in - South 3.5 mph - N/A   Clear
10:00 AM 98.6 °F 104.1 °F 68.0 °F 37% 29.80 in - Variable 3.5 mph - N/A   Clear
10:30 AM 100.4 °F 106.3 °F 68.0 °F 35% 29.80 in - Variable 1.2 mph - N/A   Clear
11:00 AM 100.4 °F 104.9 °F 66.2 °F 33% 29.77 in - North 6.9 mph - N/A   Clear
11:30 AM 100.4 °F 98.8 °F 55.4 °F 22% 29.77 in 6.2 mi North 9.2 mph - N/A   Partly Cloudy
12:00 PM 100.4 °F - 50.0 °F 18% 29.77 in 6.2 mi NNE 9.2 mph - N/A   Partly Cloudy
12:30 PM 100.4 °F - 50.0 °F 18% 29.77 in 6.2 mi NNE 8.1 mph - N/A   Partly Cloudy
1:00 PM 100.4 °F 99.7 °F 57.2 °F 24% 29.74 in 6.2 mi ENE 10.4 mph - N/A   Partly Cloudy
1:30 PM 100.4 °F - 51.8 °F 20% 29.74 in 6.2 mi ENE 10.4 mph - N/A   Partly Cloudy
2:00 PM 98.6 °F 100.0 °F 62.6 °F 30% 29.74 in 6.2 mi East 11.5 mph - N/A   Partly Cloudy
2:30 PM 96.8 °F 101.8 °F 68.0 °F 39% 29.74 in 6.2 mi ENE 11.5 mph - N/A   Partly Cloudy
3:00 PM 95 °F - 73 °F 40% 29.75 in 6 mi East 12.7 mph - -   Scattered Clouds
3:00 PM 95.0 °F 104.5 °F 73.4 °F 49% 29.74 in 6.2 mi East 12.7 mph - N/A   Partly Cloudy
3:30 PM 95.0 °F 103.2 °F 71.6 °F 47% 29.74 in 6.2 mi ENE 10.4 mph - N/A   Partly Cloudy
4:00 PM 93.2 °F 105.0 °F 75.2 °F 56% 29.74 in 6.2 mi East 9.2 mph - N/A   Partly Cloudy
4:30 PM 93.2 °F 105.0 °F 75.2 °F 56% 29.74 in - East 8.1 mph - N/A   Clear
5:00 PM 91.4 °F 105.1 °F 77.0 °F 63% 29.77 in 5.6 mi ENE 6.9 mph - N/A   Unknown
5:30 PM 91.4 °F 107.2 °F 78.8 °F 66% 29.77 in 5.6 mi ENE 5.8 mph - N/A   Unknown
6:00 PM 89.6 °F 104.7 °F 78.8 °F 70% 29.77 in - East 5.8 mph - N/A   Clear
6:30 PM 89.6 °F 104.7 °F 78.8 °F 70% 29.77 in - East 4.6 mph - N/A   Clear
7:00 PM 89.6 °F 102.2 °F 77.0 °F 66% 29.77 in - East 5.8 mph - N/A   Clear
7:30 PM 89.6 °F 102.2 °F 77.0 °F 66% 29.77 in - East 4.6 mph - N/A   Clear
8:00 PM 89.6 °F 102.2 °F 77.0 °F 66% 29.77 in - ESE 5.8 mph - N/A   Clear
8:30 PM 89.6 °F 102.2 °F 77.0 °F 66% 29.77 in - ESE 5.8 mph - N/A   Clear
9:00 PM 89 °F - 76 °F 59% 29.80 in 6 mi ESE 6.9 mph - -  
9:00 PM 89.6 °F 102.2 °F 77.0 °F 66% 29.77 in - ESE 6.9 mph - N/A   Clear
9:30 PM 89.6 °F 99.8 °F 75.2 °F 62% 29.77 in - SE 5.8 mph - N/A   Clear
10:00 PM 87.8 °F 97.6 °F 75.2 °F 66% 29.77 in - SSE 4.6 mph - N/A   Clear
10:30 PM 87.8 °F 97.6 °F 75.2 °F 66% 29.77 in - SE 3.5 mph - N/A   Clear
11:00 PM 87.8 °F 97.6 °F 75.2 °F 66% 29.77 in - Variable 2.3 mph - N/A   Clear
11:30 PM 87.8 °F 99.7 °F 77.0 °F 70% 29.77 in 5.6 mi Variable 2.3 mph - N/A   Unknown